EW5925 Capalaba AU current weather conditions

sailwx.info

Wind from 302 at 3 knots gusting 13

Air temperature 17.8° C
Dewpoint 6.0° C

Last reported at 2020-Jul-14 03:03 UTC.
Time now 2020-Jul-14 03:25 UTC

Location: S 27°33' E 153°12'.
View on Google Maps.

See reports from other nearby stations

  
Tides and Currents Weather Stations Pressure Air Temp Water Temp Dewpoint Dewpoint Depression Visibility Wind Speed Wind Dir Waves Ship Positions
date/time (UTC)wind fromknots sea level pressurealtimeterstation pressurevisibilityair tempwater tempwave heightnotes
2020-Jul-14 03:03 302 3 gusting 13 17.8
2020-Jul-14 02:58 278 3 gusting 13 17.8
2020-Jul-14 02:53 324 4 gusting 12 17.8
2020-Jul-14 02:48 276 4 gusting 12 17.8
2020-Jul-14 02:43 238 4 gusting 13 17.8
2020-Jul-14 02:38 314 4 gusting 13 17.8
2020-Jul-14 02:33 288 4 gusting 12 17.8
2020-Jul-14 02:28 275 5 gusting 13 17.8
2020-Jul-14 02:23 281 4 gusting 13 17.2
2020-Jul-14 02:18 235 4 gusting 13 17.8
2020-Jul-14 02:13 235 4 gusting 19 17.2
2020-Jul-14 02:08 280 4 gusting 19 17.8
2020-Jul-14 02:02 303 3 gusting 10 17.8
2020-Jul-14 01:57 230 3 gusting 10 17.2
2020-Jul-14 01:52 302 3 gusting 12 17.2
2020-Jul-14 01:47 180 3 gusting 13 17.2
2020-Jul-14 01:42 268 3 gusting 13 17.2
2020-Jul-14 01:37 270 3 gusting 13 17.2
2020-Jul-14 01:32 320 4 gusting 13 17.2
2020-Jul-14 01:27 318 4 gusting 12 17.2
2020-Jul-14 01:22 270 3 gusting 12 17.2
2020-Jul-14 01:17 301 3 gusting 10 16.7
2020-Jul-14 01:12 272 4 gusting 15 16.7
2020-Jul-14 01:07 258 4 gusting 15 16.7
2020-Jul-14 01:02 299 3 gusting 11 16.7
2020-Jul-14 00:57 004 3 gusting 11 16.1
2020-Jul-14 00:52 285 3 gusting 11 16.1
2020-Jul-14 00:47 222 3 gusting 13 16.1
2020-Jul-14 00:42 220 3 gusting 13 16.1
2020-Jul-14 00:37 274 3 gusting 10 15.6
2020-Jul-14 00:32 318 4 gusting 12 15.6
2020-Jul-14 00:27 297 4 gusting 12 15.6
2020-Jul-14 00:22 280 4 gusting 13 15.6
2020-Jul-14 00:17 267 4 gusting 16 15.0
2020-Jul-14 00:12 266 3 gusting 16 15.0
2020-Jul-14 00:07 218 2 gusting 7 15.0
2020-Jul-14 00:02 244 2 gusting 7 15.0
2020-Jul-13 23:56 287 2 gusting 11 14.4
2020-Jul-13 23:52 323 3 gusting 11 14.4
2020-Jul-13 23:41 268 3 gusting 8 13.9
2020-Jul-13 23:36 260 3 gusting 13 13.9
2020-Jul-13 23:31 263 3 gusting 13 13.9
2020-Jul-13 23:26 301 3 gusting 16 13.3
2020-Jul-13 23:21 338 3 gusting 16 13.3
2020-Jul-13 23:16 299 3 gusting 8 13.3
2020-Jul-13 23:11 242 3 gusting 8 13.3
2020-Jul-13 23:06 244 3 gusting 11 13.3
2020-Jul-13 23:00 303 3 gusting 11 12.8
2020-Jul-13 22:55 231 2 gusting 11 12.8
2020-Jul-13 22:50 270 2 gusting 12 12.8
2020-Jul-13 22:46 302 3 gusting 12 12.8
2020-Jul-13 22:40 310 3 gusting 14 12.2
2020-Jul-13 22:35 251 3 gusting 14 12.2
2020-Jul-13 22:30 058 2 gusting 10 12.2
2020-Jul-13 22:25 283 2 gusting 9 11.7
2020-Jul-13 22:20 283 2 gusting 6 11.7
2020-Jul-13 22:15 270 2 gusting 12 11.1
2020-Jul-13 22:09 262 2 gusting 12 11.1
2020-Jul-13 22:04 302 2 gusting 8 11.1
2020-Jul-13 21:49 279 2 gusting 11 10.0
2020-Jul-13 21:42 303 2 gusting 11 10.0
2020-Jul-13 21:37 274 1 gusting 6 9.4
2020-Jul-13 21:32 266 1 gusting 6 9.4
2020-Jul-13 21:26 309 2 gusting 10 9.4
2020-Jul-13 21:21 345 2 gusting 10 9.4
2020-Jul-13 21:16 260 2 gusting 8 9.4
2020-Jul-13 21:11 239 1 gusting 8 9.4
2020-Jul-13 21:06 267 1 gusting 6 9.4
2020-Jul-13 21:01 251 1 gusting 6 9.4
2020-Jul-13 20:56 283 2 gusting 6 9.4
2020-Jul-13 20:51 271 2 gusting 8 9.4
2020-Jul-13 20:46 264 1 gusting 8 9.4
2020-Jul-13 20:41 266 1 gusting 6 9.4
2020-Jul-13 20:36 247 1 gusting 6 9.4
2020-Jul-13 20:31 312 1 gusting 6 9.4
2020-Jul-13 20:26 293 1 gusting 5 8.9
2020-Jul-13 20:21 254 1 gusting 3 8.9
2020-Jul-13 20:15 322 0 gusting 3 8.9
2020-Jul-13 20:10 333 0 gusting 6 9.4
2020-Jul-13 20:05 284 1 gusting 6 9.4
2020-Jul-13 20:00 276 1 gusting 5 9.4
2020-Jul-13 19:55 285 1 gusting 5 9.4
2020-Jul-13 19:50 295 1 gusting 6 9.4
2020-Jul-13 19:45 228 2 gusting 7 9.4
2020-Jul-13 19:40 254 2 gusting 8 9.4
2020-Jul-13 19:35 297 2 gusting 9 9.4
2020-Jul-13 19:30 272 2 gusting 9 9.4
2020-Jul-13 19:25 268 2 gusting 10 9.4
2020-Jul-13 19:20 266 2 gusting 10 9.4
2020-Jul-13 19:15 243 1 gusting 6 9.4
2020-Jul-13 19:10 034 1 gusting 10 9.4
2020-Jul-13 19:05 290 1 gusting 10 9.4
2020-Jul-13 19:00 242 1 gusting 5 9.4
2020-Jul-13 18:55 292 1 gusting 5 9.4
2020-Jul-13 18:50 278 1 gusting 5 9.4
2020-Jul-13 18:45 309 0 gusting 5 9.4
2020-Jul-13 18:40 278 0 gusting 3 9.4
2020-Jul-13 18:35 283 1 gusting 6 9.4
2020-Jul-13 18:30 265 1 gusting 8 9.4
2020-Jul-13 18:25 262 0 gusting 8 9.4
2020-Jul-13 18:20 252 1 gusting 6 9.4
2020-Jul-13 18:15 247 1 gusting 5 9.4
2020-Jul-13 18:10 254 1 gusting 5 9.4
2020-Jul-13 18:05 270 1 gusting 6 10.0
2020-Jul-13 18:00 242 1 gusting 6 9.4
2020-Jul-13 17:55 296 1 gusting 6 10.0
2020-Jul-13 17:45 251 1 gusting 4 9.4
2020-Jul-13 17:40 175 1 gusting 4 9.4
2020-Jul-13 17:35 274 1 gusting 5 9.4
2020-Jul-13 17:25 300 0 gusting 5 9.4
2020-Jul-13 17:20 305 0 gusting 5 9.4
2020-Jul-13 17:15 301 0 gusting 4 9.4
2020-Jul-13 17:10 326 1 gusting 4 9.4
2020-Jul-13 17:05 276 1 gusting 6 9.4
2020-Jul-13 16:59 236 0 gusting 6 9.4
2020-Jul-13 16:54 248 0 gusting 4 9.4
2020-Jul-13 16:50 242 0 gusting 4 9.4
2020-Jul-13 16:45 235 0 gusting 4 9.4
2020-Jul-13 16:39 236 1 gusting 6 9.4
2020-Jul-13 16:34 208 1 gusting 6 9.4
2020-Jul-13 16:29 232 1 gusting 4 9.4
2020-Jul-13 16:24 301 1 gusting 4 9.4
2020-Jul-13 16:19 322 0 gusting 4 9.4
2020-Jul-13 16:14 326 9.4
2020-Jul-13 16:09 326 9.4
2020-Jul-13 16:04 267 9.4
2020-Jul-13 15:59 267 9.4
2020-Jul-13 15:54 267 0 gusting 1 9.4
2020-Jul-13 15:49 266 0 gusting 3 9.4
2020-Jul-13 15:44 268 10.0
2020-Jul-13 15:39 293 10.0
2020-Jul-13 15:34 293 10.0
2020-Jul-13 15:29 293 10.0
2020-Jul-13 15:24 199 10.0
2020-Jul-13 15:19 199 0 gusting 4 10.0
2020-Jul-13 15:14 199 1 gusting 4 10.0
2020-Jul-13 15:09 193 0 gusting 3 10.0
2020-Jul-13 15:04 128 0 gusting 4 10.0
2020-Jul-13 14:59 324 0 gusting 4 10.0
2020-Jul-13 14:54 336 0 gusting 7 10.0
2020-Jul-13 14:49 211 0 gusting 7 10.0
2020-Jul-13 14:44 274 10.0
2020-Jul-13 14:39 291 0 gusting 3 10.0
2020-Jul-13 14:34 307 0 gusting 3 9.4
2020-Jul-13 14:28 291 0 gusting 3 9.4
2020-Jul-13 14:23 312 0 gusting 2 10.0
2020-Jul-13 14:18 312 10.0
2020-Jul-13 14:13 312 10.0
2020-Jul-13 14:08 312 10.0
2020-Jul-13 14:04 312 10.6
2020-Jul-13 13:58 312 10.6
2020-Jul-13 13:53 312 10.6
2020-Jul-13 13:48 312 10.6
2020-Jul-13 13:43 312 10.6
2020-Jul-13 13:38 312 0 gusting 1 11.1
2020-Jul-13 13:33 312 0 gusting 1 11.1
2020-Jul-13 13:28 312 11.1
2020-Jul-13 13:23 312 11.1
2020-Jul-13 13:18 312 11.7
2020-Jul-13 13:13 312 0 gusting 3 11.7
2020-Jul-13 13:08 274 0 gusting 2 11.7
2020-Jul-13 13:03 274 0 gusting 5 11.7
2020-Jul-13 12:58 281 0 gusting 5 11.7
2020-Jul-13 12:53 278 1 gusting 9 11.7
2020-Jul-13 12:48 245 1 gusting 9 11.7
2020-Jul-13 12:43 233 0 gusting 5 11.7
2020-Jul-13 12:38 310 0 gusting 3 11.7
2020-Jul-13 12:33 278 0 gusting 4 11.7
2020-Jul-13 12:28 297 0 gusting 4 11.7
2020-Jul-13 12:23 340 0 gusting 4 11.7
2020-Jul-13 12:17 224 0 gusting 3 11.7
2020-Jul-13 12:12 305 0 gusting 6 11.7
2020-Jul-13 12:07 304 0 gusting 3 11.7
2020-Jul-13 12:02 289 0 gusting 2 11.7
2020-Jul-13 11:57 280 0 gusting 1 11.7
2020-Jul-13 11:52 299 0 gusting 5 11.7
2020-Jul-13 11:46 301 0 gusting 5 12.2
2020-Jul-13 11:41 306 0 gusting 3 12.2
2020-Jul-13 11:36 295 0 gusting 2 12.2
2020-Jul-13 11:31 295 0 gusting 2 12.2
2020-Jul-13 11:26 303 0 gusting 2 12.2
2020-Jul-13 11:21 302 0 gusting 3 12.2
2020-Jul-13 11:16 304 0 gusting 3 12.2
2020-Jul-13 11:11 297 12.8
2020-Jul-13 11:06 294 12.8
2020-Jul-13 11:01 294 0 gusting 4 12.8
2020-Jul-13 10:55 294 1 gusting 4 12.8
2020-Jul-13 10:50 303 0 gusting 4 12.8
2020-Jul-13 10:45 306 0 gusting 3 12.8
2020-Jul-13 10:40 304 0 gusting 4 12.8
2020-Jul-13 10:35 314 1 gusting 4 13.3
2020-Jul-13 10:30 316 0 gusting 4 13.3
2020-Jul-13 10:25 258 0 gusting 4 13.3
2020-Jul-13 10:20 278 0 gusting 2 13.3
2020-Jul-13 10:15 279 0 gusting 2 13.3
2020-Jul-13 10:10 287 0 gusting 3 13.3
2020-Jul-13 10:05 231 0 gusting 3 13.3
2020-Jul-13 10:00 301 0 gusting 3 13.3
2020-Jul-13 09:55 227 0 gusting 4 13.3
2020-Jul-13 09:50 307 0 gusting 4 13.3
2020-Jul-13 09:45 296 0 gusting 2 13.3
2020-Jul-13 09:40 306 0 gusting 4 13.3
2020-Jul-13 09:35 299 0 gusting 4 13.3
2020-Jul-13 09:30 295 0 gusting 2 13.3
2020-Jul-13 09:24 283 0 gusting 2 13.3
2020-Jul-13 09:19 298 0 gusting 2 13.3
2020-Jul-13 09:14 305 0 gusting 1 12.8
2020-Jul-13 09:09 310 13.3
2020-Jul-13 09:04 310 13.3
2020-Jul-13 08:58 310 13.3
2020-Jul-13 08:53 310 13.9
2020-Jul-13 08:47 310 13.9
2020-Jul-13 08:42 310 14.4
2020-Jul-13 08:36 310 14.4
2020-Jul-13 08:31 310 15.0
2020-Jul-13 08:25 310 15.0
2020-Jul-13 08:20 310 15.0
2020-Jul-13 08:15 310 15.6
2020-Jul-13 08:09 310 15.6
2020-Jul-13 08:04 310 15.6
2020-Jul-13 07:58 310 15.6
2020-Jul-13 07:53 315 0 gusting 1 15.6
2020-Jul-13 07:48 315 0 gusting 2 16.1
2020-Jul-13 07:43 315 0 gusting 2 16.1
2020-Jul-13 07:37 315 0 gusting 2 16.7
2020-Jul-13 07:32 320 0 gusting 2 16.7
2020-Jul-13 07:27 321 0 gusting 2 16.7
2020-Jul-13 07:22 334 0 gusting 1 17.2
2020-Jul-13 07:16 334 0 gusting 2 17.2
2020-Jul-13 07:11 335 0 gusting 2 17.8
2020-Jul-13 07:05 338 0 gusting 5 17.8
2020-Jul-13 07:00 313 0 gusting 5 17.8
2020-Jul-13 06:55 302 1 gusting 6 17.8
2020-Jul-13 06:50 300 1 gusting 6 18.3
2020-Jul-13 06:45 240 1 gusting 6 18.3
2020-Jul-13 06:40 278 1 gusting 6 18.9
2020-Jul-13 06:35 268 1 gusting 6 18.9
2020-Jul-13 06:30 310 1 gusting 6 18.9
2020-Jul-13 06:25 233 1 gusting 5 19.4
2020-Jul-13 06:20 287 1 gusting 7 19.4
2020-Jul-13 06:15 279 1 gusting 7 19.4
2020-Jul-13 06:10 248 2 gusting 10 20.0
2020-Jul-13 06:05 254 2 gusting 10 20.0
2020-Jul-13 06:00 265 2 gusting 8 20.0
2020-Jul-13 05:55 226 1 gusting 7 20.0
2020-Jul-13 05:50 237 1 gusting 5 20.0
2020-Jul-13 05:44 225 2 gusting 6 20.6
2020-Jul-13 05:39 212 2 gusting 6 20.6
2020-Jul-13 05:34 238 2 gusting 9 20.6
2020-Jul-13 05:29 296 2 gusting 9 20.6
2020-Jul-13 05:24 306 2 gusting 7 21.1
2020-Jul-13 05:19 277 2 gusting 8 21.1
2020-Jul-13 05:14 281 2 gusting 9 21.1
2020-Jul-13 05:09 260 2 gusting 9 21.1
2020-Jul-13 05:04 260 2 gusting 7 21.1
2020-Jul-13 04:59 301 2 gusting 7 21.7
2020-Jul-13 04:54 299 2 gusting 10 21.7
2020-Jul-13 04:49 313 1 gusting 10 21.7
2020-Jul-13 04:44 274 1 gusting 6 21.7
2020-Jul-13 04:39 205 1 gusting 7 21.7
2020-Jul-13 04:34 330 1 gusting 7 21.7
2020-Jul-13 04:29 236 1 gusting 6 21.7
2020-Jul-13 04:24 261 1 gusting 6 21.7
2020-Jul-13 04:19 278 2 gusting 8 21.7
2020-Jul-13 04:13 314 1 gusting 8 21.7
2020-Jul-13 04:08 275 1 gusting 7 21.7
2020-Jul-13 04:03 308 1 gusting 7 21.7
2020-Jul-13 03:58 291 1 gusting 7 21.7
2020-Jul-13 03:53 259 1 gusting 7 21.1
2020-Jul-13 03:48 239 2 gusting 8 21.1
2020-Jul-13 03:43 293 1 gusting 8 21.1
2020-Jul-13 03:38 308 1 gusting 6 20.6
2020-Jul-13 03:33 217 1 gusting 8 20.6
2020-Jul-13 03:28 263 2 gusting 8 20.6
2020-Jul-13 03:23 231 2 gusting 10 20.6
2020-Jul-13 03:18 233 2 gusting 10 20.6
2020-Jul-13 03:13 239 2 gusting 11 20.6
2020-Jul-13 03:08 197 2 gusting 11 20.6
2020-Jul-13 03:03 262 2 gusting 8 20.6
2020-Jul-13 02:58 310 3 gusting 10 20.6
2020-Jul-13 02:53 306 3 gusting 10 20.6
2020-Jul-13 02:48 287 2 gusting 9 21.1
2020-Jul-13 02:43 312 2 gusting 7 21.1
2020-Jul-13 02:38 237 2 gusting 7 21.1
2020-Jul-13 02:33 301 2 gusting 6 21.1
2020-Jul-13 02:28 258 1 gusting 7 20.6
2020-Jul-13 02:23 233 2 gusting 10 20.6
2020-Jul-13 02:18 249 2 gusting 10 20.6
2020-Jul-13 02:13 309 1 gusting 7 20.6
2020-Jul-13 02:08 300 1 gusting 7 20.0
2020-Jul-13 02:03 308 2 gusting 6 19.4
2020-Jul-13 01:57 217 2 gusting 8 19.4
2020-Jul-13 01:52 226 2 gusting 8 19.4
2020-Jul-13 01:47 228 2 gusting 8 18.9
2020-Jul-13 01:42 269 1 gusting 8 18.9
2020-Jul-13 01:37 256 0 gusting 6 18.3
2020-Jul-13 01:32 271 0 gusting 2 17.8
2020-Jul-13 01:27 240 0 gusting 4 17.8
2020-Jul-13 01:22 243 0 gusting 4 17.8
2020-Jul-13 01:17 245 0 gusting 3 17.8
2020-Jul-13 01:12 236 0 gusting 4 17.2
2020-Jul-13 01:07 258 0 gusting 4 17.2
2020-Jul-13 01:02 229 0 gusting 7 17.2
2020-Jul-13 00:57 229 0 gusting 7 16.7
2020-Jul-13 00:52 235 0 gusting 6 16.7
2020-Jul-13 00:46 158 0 gusting 6 16.7
2020-Jul-13 00:41 243 1 gusting 6 16.1
2020-Jul-13 00:36 230 0 gusting 6 16.1
2020-Jul-13 00:31 248 15.6
2020-Jul-13 00:26 241 15.6
2020-Jul-13 00:21 276 15.6
2020-Jul-13 00:16 307 1 gusting 5 15.6
2020-Jul-13 00:11 318 1 gusting 6 15.0
2020-Jul-13 00:05 262 1 gusting 6 15.0
2020-Jul-13 00:00 233 1 gusting 6 15.0
2020-Jul-12 23:55 243 0 gusting 5 15.0
2020-Jul-12 23:50 246 0 gusting 5 14.4
2020-Jul-12 23:45 234 0 gusting 4 14.4
2020-Jul-12 23:40 239 0 gusting 3 14.4
2020-Jul-12 23:35 235 0 gusting 3 14.4
2020-Jul-12 23:30 180 0 gusting 3 14.4
2020-Jul-12 23:25 350 14.4
2020-Jul-12 23:20 261 0 gusting 3 14.4
2020-Jul-12 23:15 270 0 gusting 3 14.4
2020-Jul-12 23:10 232 1 gusting 4 14.4
2020-Jul-12 23:05 230 1 gusting 5 14.4
2020-Jul-12 23:00 219 0 gusting 5 14.4
2020-Jul-12 22:50 218 0 gusting 5 14.4
2020-Jul-12 22:45 331 0 gusting 5 14.4
2020-Jul-12 22:40 241 0 gusting 5 14.4
2020-Jul-12 22:34 225 0 gusting 3 14.4
2020-Jul-12 22:29 238 1 gusting 4 14.4
2020-Jul-12 22:24 235 1 gusting 6 14.4
2020-Jul-12 22:19 230 0 gusting 6 14.4
2020-Jul-12 22:14 237 0 gusting 5 14.4
2020-Jul-12 22:09 247 0 gusting 6 14.4
2020-Jul-12 22:04 240 1 gusting 6 14.4
2020-Jul-12 21:59 224 1 gusting 6 14.4
2020-Jul-12 21:54 215 0 gusting 4 14.4
2020-Jul-12 21:48 245 0 gusting 3 14.4
2020-Jul-12 21:43 233 0 gusting 3 14.4
2020-Jul-12 21:37 185 14.4
2020-Jul-12 21:32 185 0 gusting 3 14.4
2020-Jul-12 21:26 185 13.9
2020-Jul-12 21:21 185 13.9
2020-Jul-12 21:16 185 13.9
2020-Jul-12 21:10 185 13.9
2020-Jul-12 21:05 185 0 gusting 3 14.4
2020-Jul-12 21:00 185 0 gusting 3 14.4
2020-Jul-12 20:54 229 14.4
2020-Jul-12 20:49 200 0 gusting 3 14.4
2020-Jul-12 20:43 200 0 gusting 4 14.4
2020-Jul-12 20:38 243 0 gusting 3 14.4
2020-Jul-12 20:33 241 0 gusting 4 14.4
2020-Jul-12 20:27 266 0 gusting 3 14.4
2020-Jul-12 20:22 231 0 gusting 3 14.4
2020-Jul-12 20:17 233 0 gusting 2 14.4
2020-Jul-12 20:12 233 0 gusting 2 14.4
2020-Jul-12 20:06 247 0 gusting 6 14.4
2020-Jul-12 20:01 223 0 gusting 6 14.4
2020-Jul-12 19:55 225 0 gusting 5 14.4
2020-Jul-12 19:50 221 0 gusting 5 14.4
2020-Jul-12 19:45 262 0 gusting 2 14.4
2020-Jul-12 19:40 264 0 gusting 3 14.4
2020-Jul-12 19:34 254 0 gusting 3 14.4
2020-Jul-12 19:29 232 0 gusting 4 14.4
2020-Jul-12 19:24 234 0 gusting 4 14.4
2020-Jul-12 19:18 228 0 gusting 4 14.4
2020-Jul-12 19:13 238 0 gusting 6 14.4
2020-Jul-12 19:07 242 0 gusting 6 14.4
2020-Jul-12 19:02 228 0 gusting 2 14.4
2020-Jul-12 18:57 278 0 gusting 4 14.4
2020-Jul-12 18:52 276 0 gusting 4 14.4
2020-Jul-12 18:47 224 0 gusting 4 14.4
2020-Jul-12 18:42 225 0 gusting 4 14.4
2020-Jul-12 18:37 274 14.4
2020-Jul-12 18:32 245 14.4
2020-Jul-12 18:27 245 14.4
2020-Jul-12 18:22 245 14.4
2020-Jul-12 18:17 245 14.4
2020-Jul-12 18:12 227 14.4
2020-Jul-12 18:07 227 14.4
2020-Jul-12 18:02 227 14.4
2020-Jul-12 17:57 230 14.4
2020-Jul-12 17:52 231 14.4
2020-Jul-12 17:47 234 14.4
2020-Jul-12 17:42 231 14.4
2020-Jul-12 17:37 231 14.4
2020-Jul-12 17:32 231 14.4
2020-Jul-12 17:27 231 14.4
2020-Jul-12 17:22 231 14.4
2020-Jul-12 17:17 003 14.4
2020-Jul-12 17:12 003 14.4
2020-Jul-12 17:07 003 14.4
2020-Jul-12 17:02 003 14.4
2020-Jul-12 16:57 003 14.4
2020-Jul-12 16:52 003 14.4
2020-Jul-12 16:47 003 14.4
2020-Jul-12 16:42 003 14.4
2020-Jul-12 16:37 003 14.4
2020-Jul-12 16:32 003 14.4
2020-Jul-12 16:26 003 14.4
2020-Jul-12 16:21 003 14.4
2020-Jul-12 16:16 003 14.4
2020-Jul-12 16:11 003 14.4
2020-Jul-12 16:06 003 14.4
2020-Jul-12 16:01 003 14.4
2020-Jul-12 15:56 003 14.4
2020-Jul-12 15:51 003 14.4
2020-Jul-12 15:46 003 14.4
2020-Jul-12 15:41 003 14.4
2020-Jul-12 15:36 003 14.4
2020-Jul-12 15:31 003 15.0
2020-Jul-12 15:26 003 15.0
2020-Jul-12 15:21 003 14.4
2020-Jul-12 15:16 003 15.0
2020-Jul-12 15:11 003 15.0
2020-Jul-12 15:06 003 15.0
2020-Jul-12 15:01 003 15.0
2020-Jul-12 14:56 003 15.0
2020-Jul-12 14:51 003 15.0
2020-Jul-12 14:46 003 15.0
2020-Jul-12 14:41 003 15.0
2020-Jul-12 14:36 003 15.0
2020-Jul-12 14:31 003 15.0
2020-Jul-12 14:26 003 15.0
2020-Jul-12 14:21 003 15.0
2020-Jul-12 14:16 003 15.0
2020-Jul-12 14:10 003 15.0
2020-Jul-12 14:05 003 15.0
2020-Jul-12 14:00 003 15.0
2020-Jul-12 13:55 003 15.0
2020-Jul-12 13:50 003 15.0
2020-Jul-12 13:46 003 15.0
2020-Jul-12 13:40 003 15.0
2020-Jul-12 13:35 003 15.0
2020-Jul-12 13:31 003 15.0
2020-Jul-12 13:26 003 15.0
2020-Jul-12 13:20 003 15.0
2020-Jul-12 13:15 003 15.0
2020-Jul-12 13:10 003 15.0
2020-Jul-12 13:05 003 15.0
2020-Jul-12 13:00 003 15.0
2020-Jul-12 12:55 003 15.0
2020-Jul-12 12:45 003 15.6
2020-Jul-12 12:41 003 15.6
2020-Jul-12 12:35 003 15.6
2020-Jul-12 12:30 003 15.6
2020-Jul-12 12:25 003 15.0
2020-Jul-12 12:20 003 15.6
2020-Jul-12 12:14 003 15.6
2020-Jul-12 12:09 003 15.6
2020-Jul-12 12:04 003 15.6
2020-Jul-12 11:59 003 15.6
2020-Jul-12 11:54 003 15.6
2020-Jul-12 11:49 003 15.6
2020-Jul-12 11:44 003 15.6
2020-Jul-12 11:39 003 15.6
2020-Jul-12 11:34 003 15.6
2020-Jul-12 11:29 003 15.6
2020-Jul-12 11:24 003 15.6
2020-Jul-12 11:19 003 15.6
2020-Jul-12 11:14 003 15.6
2020-Jul-12 11:09 003 15.6
2020-Jul-12 11:04 003 15.6
2020-Jul-12 10:59 003 15.6
2020-Jul-12 10:54 003 15.6
2020-Jul-12 10:49 003 15.6
2020-Jul-12 10:44 003 15.6
2020-Jul-12 10:39 003 15.6
2020-Jul-12 10:34 003 15.6
2020-Jul-12 10:29 003 15.6
2020-Jul-12 10:24 003 15.6
2020-Jul-12 10:18 003 15.6
2020-Jul-12 10:13 003 15.6
2020-Jul-12 10:08 269 15.6
2020-Jul-12 10:03 263 15.6
2020-Jul-12 09:58 296 15.6
2020-Jul-12 09:53 296 15.6
2020-Jul-12 09:48 296 15.6
2020-Jul-12 09:43 296 15.6
2020-Jul-12 09:38 296 15.6
2020-Jul-12 09:33 295 16.1
2020-Jul-12 09:22 294 16.1
2020-Jul-12 09:17 294 16.1
2020-Jul-12 09:12 294 16.1
2020-Jul-12 09:06 294 16.1
2020-Jul-12 09:01 294 16.1
2020-Jul-12 08:56 294 16.1
2020-Jul-12 08:51 294 16.1
2020-Jul-12 08:45 294 16.1
2020-Jul-12 08:40 294 16.1
2020-Jul-12 08:35 294 16.1
2020-Jul-12 08:30 294 16.1
2020-Jul-12 08:25 294 16.1
2020-Jul-12 08:19 295 16.1
2020-Jul-12 08:13 295 16.7
2020-Jul-12 08:08 295 16.7
2020-Jul-12 08:02 295 16.7
2020-Jul-12 07:57 295 16.7
2020-Jul-12 07:52 295 16.7
2020-Jul-12 07:47 295 16.7
2020-Jul-12 07:42 295 16.7
2020-Jul-12 07:36 295 16.7
2020-Jul-12 07:31 295 17.2
2020-Jul-12 07:25 295 17.2
2020-Jul-12 07:20 295 17.2
2020-Jul-12 07:14 295 17.2
2020-Jul-12 07:09 295 17.2
2020-Jul-12 07:04 295 17.8
2020-Jul-12 06:59 296 17.8
2020-Jul-12 06:54 289 17.8
2020-Jul-12 06:49 324 17.8
2020-Jul-12 06:44 326 17.8
2020-Jul-12 06:39 326 18.3
2020-Jul-12 06:34 326 18.3
2020-Jul-12 06:29 281 18.3
2020-Jul-12 06:24 308 18.3
2020-Jul-12 06:19 308 18.3
2020-Jul-12 06:14 308 18.3
2020-Jul-12 06:09 299 18.3
2020-Jul-12 06:04 270 18.3
2020-Jul-12 05:59 265 18.9
2020-Jul-12 05:54 228 18.9
2020-Jul-12 05:49 221 18.9
2020-Jul-12 05:44 220 18.9
2020-Jul-12 05:39 283 18.9
2020-Jul-12 05:34 297 18.9
2020-Jul-12 05:28 240 18.9
2020-Jul-12 05:23 223 18.9
2020-Jul-12 05:18 309 19.4
2020-Jul-12 05:13 218 19.4
2020-Jul-12 05:08 236 0 gusting 5 19.4
2020-Jul-12 05:03 233 0 gusting 5 19.4
2020-Jul-12 04:58 220 19.4
2020-Jul-12 04:53 214 19.4
2020-Jul-12 04:48 216 19.4
2020-Jul-12 04:43 218 20.0
2020-Jul-12 04:38 255 20.0
2020-Jul-12 04:33 301 20.0
2020-Jul-12 04:28 240 20.0
2020-Jul-12 04:23 239 20.0
2020-Jul-12 04:18 234 20.0
2020-Jul-12 04:13 238 0 gusting 5 20.6
2020-Jul-12 04:08 246 0 gusting 7 20.6
2020-Jul-12 04:03 252 0 gusting 7 20.6
2020-Jul-12 03:58 252 0 gusting 8 20.6
2020-Jul-12 03:53 240 0 gusting 8 20.6
2020-Jul-12 03:47 235 0 gusting 5 21.1
2020-Jul-12 03:42 205 0 gusting 7 21.1
2020-Jul-12 03:37 226 1 gusting 7 21.1
2020-Jul-12 03:31 274 1 gusting 7 21.1
2020-Jul-12 03:26 285 0 gusting 5 21.7
2020-Jul-12 03:21 222 0 gusting 5 21.7
2020-Jul-12 03:16 216 0 gusting 5 21.7
2020-Jul-12 03:11 284 1 gusting 9 21.7
2020-Jul-12 03:06 231 1 gusting 9 21.7
2020-Jul-12 03:01 242 0 gusting 6 22.2